EJU21E EHAM-GCLP

Flight info

Callsign EJU21E
Flight time N/A
Altitude 38000
Route IDRID L980 MANGO L620 SAM/N0439F370 M195 LORKU DCT BALDA/N0443F390 DCT ABUPI DCT BEXAL DCT SAMAR
Aircraft A20N/M-SDE2E3FGHIRWXY/LB1

Departure

Time 2026-04-30 18:03
Airport Amsterdam Airport Schiphol (EHAM)

Arrival

Time N/A
Airport Gran Canaria Airport (GCLP)
Time Latitude Longitude Altitude Speed Heading
2026-04-30 17:39 52.31003 4.75411 -1 ft 0 kts 148°
2026-04-30 17:52 52.31005 4.75410 -2 ft 2 kts 148°
2026-04-30 17:53 52.31037 4.75342 -2 ft 1 kts 70°
2026-04-30 17:56 52.31100 4.75481 -2 ft 13 kts 43°
2026-04-30 17:57 52.31435 4.75471 -1 ft 19 kts 356°
2026-04-30 17:58 52.31500 4.75111 -2 ft 20 kts 268°
2026-04-30 17:59 52.31570 4.74661 -1 ft 0 kts 358°
2026-04-30 18:00 52.31657 4.74694 -1 ft 9 kts 46°
2026-04-30 18:00 52.31666 4.74758 -1 ft 0 kts 89°
2026-04-30 18:02 52.31677 4.75038 -4 ft 55 kts 87°
2026-04-30 18:02 52.31880 4.79291 475 ft 157 kts 72°
2026-04-30 18:03 52.35165 4.80251 1992 ft 209 kts 353°
2026-04-30 18:04 52.39754 4.77410 3678 ft 260 kts 315°
2026-04-30 18:05 52.45395 4.68104 6556 ft 303 kts 312°
2026-04-30 18:06 52.46498 4.54895 9886 ft 302 kts 244°
2026-04-30 18:07 52.40697 4.44087 11766 ft 352 kts 235°
2026-04-30 18:08 52.37158 4.33340 13961 ft 366 kts 239°
2026-04-30 18:09 52.32328 4.18433 16609 ft 378 kts 238°
2026-04-30 18:10 52.26085 4.04465 18961 ft 386 kts 229°
2026-04-30 18:11 52.19363 3.90435 21170 ft 397 kts 229°
2026-04-30 18:11 52.14211 3.79727 22705 ft 407 kts 229°
2026-04-30 18:12 52.08893 3.68726 24149 ft 416 kts 229°
2026-04-30 18:13 52.05291 3.61300 25018 ft 420 kts 229°
2026-04-30 18:13 52.00426 3.51305 26128 ft 427 kts 229°
2026-04-30 18:14 51.96223 3.42289 26994 ft 434 kts 232°
2026-04-30 18:15 51.90544 3.29582 28220 ft 439 kts 231°
2026-04-30 18:15 51.85550 3.17103 29200 ft 450 kts 246°
2026-04-30 18:16 51.84243 3.07145 29792 ft 458 kts 262°
2026-04-30 18:16 51.83597 2.96855 30389 ft 462 kts 262°
2026-04-30 18:17 51.83261 2.91675 30645 ft 464 kts 262°
2026-04-30 18:17 51.82919 2.86480 30930 ft 465 kts 262°
2026-04-30 18:17 51.80606 2.52374 33006 ft 465 kts 261°
2026-04-30 18:18 51.78616 2.25588 34358 ft 463 kts 262°
2026-04-30 18:18 51.77443 2.04897 35326 ft 460 kts 262°
2026-04-30 18:18 51.76219 1.84415 36174 ft 457 kts 262°
2026-04-30 18:18 51.74951 1.64073 36979 ft 454 kts 262°
2026-04-30 18:19 51.73618 1.43928 37652 ft 450 kts 256°
2026-04-30 18:19 51.67614 1.26159 38110 ft 441 kts 233°
2026-04-30 18:19 51.59563 1.06441 38180 ft 432 kts 236°
2026-04-30 18:19 51.56143 0.97423 37909 ft 438 kts 233°
2026-04-30 18:20 51.48777 0.79933 38193 ft 439 kts 234°
2026-04-30 18:20 51.33859 0.43688 38209 ft 440 kts 234°
2026-04-30 18:21 51.19994 0.11656 38163 ft 440 kts 229°
2026-04-30 18:21 51.04990 -0.19027 38156 ft 439 kts 230°
2026-04-30 18:22 50.90011 -0.49502 38175 ft 437 kts 229°
2026-04-30 18:22 50.67378 -0.94878 38114 ft 438 kts 229°
2026-04-30 18:23 50.52163 -1.24942 38126 ft 440 kts 229°
2026-04-30 18:23 50.36434 -1.53518 38098 ft 431 kts 206°
2026-04-30 18:24 50.20059 -1.65972 38096 ft 432 kts 204°
2026-04-30 18:25 50.07440 -1.75871 38088 ft 432 kts 205°
2026-04-30 18:25 49.67258 -2.06947 38153 ft 432 kts 205°
2026-04-30 18:26 49.39561 -2.28022 38028 ft 430 kts 205°
2026-04-30 18:26 49.27235 -2.37327 38005 ft 433 kts 205°
2026-04-30 18:27 48.83828 -2.69731 38056 ft 428 kts 206°
2026-04-30 18:28 48.51343 -2.93453 38074 ft 434 kts 205°
2026-04-30 18:28 48.12757 -3.21397 38357 ft 413 kts 210°
2026-04-30 18:29 47.99455 -3.31107 38118 ft 427 kts 205°
2026-04-30 18:29 47.64147 -3.55693 38232 ft 433 kts 206°
2026-04-30 18:30 47.39688 -3.72708 39017 ft 431 kts 206°
2026-04-30 18:30 47.25377 -3.82652 38641 ft 432 kts 206°
2026-04-30 18:31 47.12862 -3.91237 39043 ft 431 kts 206°
2026-04-30 18:31 46.82789 -4.11701 39184 ft 422 kts 207°
2026-04-30 18:32 46.51293 -4.32855 39114 ft 419 kts 206°
2026-04-30 18:33 46.18888 -4.54352 39114 ft 427 kts 206°
2026-04-30 18:33 45.84616 -4.76793 39108 ft 423 kts 206°
2026-04-30 18:34 45.52312 -4.97670 39127 ft 425 kts 206°
2026-04-30 18:35 45.30971 -5.11318 39121 ft 422 kts 206°
2026-04-30 18:35 45.09521 -5.24922 39124 ft 422 kts 206°
2026-04-30 18:36 44.77428 -5.45072 39124 ft 419 kts 206°
2026-04-30 18:37 44.45419 -5.64913 39124 ft 419 kts 206°
2026-04-30 18:37 44.34979 -5.71338 39131 ft 419 kts 205°
2026-04-30 18:38 44.30537 -5.74064 39133 ft 419 kts 205°
2026-04-30 18:38 44.25205 -5.77329 39124 ft 418 kts 205°
2026-04-30 18:39 44.19890 -5.80576 39124 ft 417 kts 205°
2026-04-30 18:39 44.14567 -5.83823 39124 ft 417 kts 205°
2026-04-30 18:40 44.09246 -5.87061 39124 ft 417 kts 205°
2026-04-30 18:40 44.03928 -5.90292 39121 ft 416 kts 205°
2026-04-30 18:41 43.84803 -6.01859 39111 ft 414 kts 205°